Погода в Свислочи

Беларусь     53°26′37″N   28°57′16″E
темп.,
°C
ветер,
м/с
пор.,
м/с
влажн.,
%
обл.,
%
осадки,
мм/ч
давл.,
гПа
погр.,
м
7 мая, пт
пт700:00+4юз35742 0.0 101079
03:00+5ю4773100 0.1 1010154
06:00+2ююз310905 0.0 1009206
09:00+9ююз477284 0.0 1009598
12:00+13ююз5853100 0.0 10081607
15:00+11ю4970100 0.6 10071263
18:00+8ю41094100 1.9 1005745
21:00+8ююз379665 2.4 1005342
8 мая, сб
сб800:00+7юз2497100 0.1 1005119
03:00+7зсз2597100 0.2 1005191
06:00+5сз3796100 0.0 1006350
09:00+6с4885100 0.0 1007688
12:00+8ссз5776100 0.4 10081118
15:00+9сз6959100 0.6 10101742
18:00+9сз51258100 0.1 10121860
21:00+5сз412654 0.1 1014332
9 мая, вс
вс900:00+4зсз512775 0.0 1017350
03:00+2зсз410935 0.0 1019249
06:00+1зсз36961 0.0 1021139
09:00+7сз3466100 0.0 1022584
12:00+11зсз34505 0.0 10231469
15:00+13зсз34435 0.0 10231940
18:00+13сз244431 0.0 10231829
21:00+9ю226197 0.0 102514
10 мая, пн
пн1000:00+6ююз22725 0.0 102610
03:00+5ю22775 0.0 102715
06:00+4ю23815 0.0 102842
09:00+11ю34604 0.0 1029392
12:00+15ююв45475 0.0 10281332
15:00+17ююв44445 0.0 10271528
18:00+17юв34540 0.0 10261088
21:00+10юв36760 0.0 102784
11 мая, вт
вт1100:00+8юв37790 0.0 102897
03:00+7юв34810 0.0 102853
06:00+6юв35830 0.0 102888
09:00+12вюв36600 0.0 1027405
12:00+17вюв46420 0.0 10261144
15:00+19в45380 0.0 10251340
18:00+18вюв46520 0.0 1024886
21:00+12вюв36780 0.0 102382